Weather History for Tracy, MN

Change the Weather History Date:

Wednesday, January 30, 2013

  Actual Average (KMML) Record (KMML)
Temperature  
Mean Temperature 9 °F -  
Max Temperature 19 °F 26 °F 54 °F (1989)
Min Temperature -2 °F 3 °F -25 °F (1966)
Degree Days  
Heating Degree Days 56    
Moisture  
Dew Point 6 °F    
Average Humidity 82    
Maximum Humidity 87    
Minimum Humidity 75    
Precipitation  
Precipitation 0.00 in - - ()
Sea Level Pressure  
Sea Level Pressure 29.78 in    
Wind  
Wind Speed 20 mph (NNW)    
Max Wind Speed 26 mph    
Max Gust Speed 33 mph    
Visibility 9 miles    
Events Snow    
Averages and records for this station are not official NWS values.
T = Trace of Precipitation, MM = Missing Value Source: NWS Daily Summary

Daily Weather History Graph

Daily Weather History Graph

Search for Another Location

Airport:

Trip Planner

Search our weather history database for the weather conditions in past years. The results will help you decide how hot, cold, wet, or windy it might be!

Date:

Astronomy

Jan. 30, 2013 Rise Set
Actual Time 7:42 AM CST 5:29 PM CST
Civil Twilight 7:11 AM CST 6:00 PM CST
Nautical Twilight 6:36 AM CST 6:35 PM CST
Astronomical Twilight 6:02 AM CST 7:09 PM CST
Moon 9:41 PM CST (1/30) 9:00 AM CST (1/30)
Length of Visible Light 10h 49m
Length of Day
9h 47m
Waning Gibbous, 87% of the Moon is Illuminated
Jan 30
Waning Gibbous
Feb 3
Last Quarter
Feb 10
New
Feb 17
First Quarter
Feb 25
Full

Hourly Weather History & Observations

Time (CST) Temp. Windchill Dew Point Humidity Pressure Visibility Wind Dir Wind Speed Gust Speed Precip Events Conditions
12:18 AM 19.6 °F 3.1 °F 16.3 °F 87% 29.76 in 10.0 mi NNW 21.9 mph 27.6 mph N/A   Overcast
12:38 AM 19.6 °F 4.7 °F 16.2 °F 87% 29.77 in 10.0 mi NNW 17.3 mph 27.6 mph N/A   Overcast
12:58 AM 19.2 °F 3.4 °F 15.8 °F 87% 29.77 in 10.0 mi NNW 19.6 mph 29.9 mph N/A   Overcast
1:17 AM 18.5 °F 1.3 °F 14.9 °F 86% 29.75 in 10.0 mi NNW 23.0 mph 28.8 mph N/A   Overcast
1:38 AM 18.1 °F 0.4 °F 14.5 °F 86% 29.74 in 10.0 mi NNW 24.2 mph 31.1 mph N/A   Overcast
1:58 AM 17.4 °F -0.5 °F 14.0 °F 86% 29.76 in 10.0 mi North 24.2 mph 29.9 mph N/A   Overcast
2:17 AM 16.7 °F 0.1 °F 13.5 °F 87% 29.76 in 10.0 mi NNW 19.6 mph 31.1 mph N/A   Overcast
2:37 AM 16.3 °F -1.2 °F 12.9 °F 86% 29.75 in 10.0 mi NNW 21.9 mph 29.9 mph N/A   Overcast
2:57 AM 15.8 °F -0.6 °F 12.2 °F 86% 29.76 in 10.0 mi NNW 18.4 mph 29.9 mph N/A   Overcast
3:18 AM 15.3 °F -0.9 °F 11.5 °F 85% 29.76 in 10.0 mi NNW 17.3 mph 27.6 mph N/A   Overcast
3:38 AM 14.9 °F -3.5 °F 11.3 °F 86% 29.75 in 10.0 mi NNW 23.0 mph 27.6 mph N/A   Overcast
3:58 AM 14.7 °F -2.5 °F 11.1 °F 86% 29.75 in 10.0 mi NNW 19.6 mph 26.5 mph N/A   Overcast
4:18 AM 14.4 °F -3.4 °F 10.6 °F 85% 29.76 in 10.0 mi NNW 20.7 mph 28.8 mph N/A   Overcast
4:37 AM 14.0 °F -4.3 °F 10.4 °F 86% 29.77 in 10.0 mi NNW 21.9 mph 28.8 mph N/A   Overcast
4:57 AM 13.8 °F -3.7 °F 10.2 °F 86% 29.77 in 10.0 mi NNW 19.6 mph 28.8 mph N/A   Overcast
5:18 AM 13.6 °F -4.8 °F 10.4 °F 87% 29.77 in 10.0 mi NNW 21.9 mph 31.1 mph N/A   Overcast
5:38 AM 13.5 °F -4.6 °F 10.2 °F 87% 29.77 in 10.0 mi NNW 20.7 mph 31.1 mph N/A   Overcast
5:58 AM 13.1 °F -5.9 °F 9.9 °F 87% 29.77 in 10.0 mi NNW 23.0 mph 32.2 mph N/A   Overcast
6:18 AM 13.1 °F -5.1 °F 9.5 °F 86% 29.76 in 7.0 mi NNW 20.7 mph 28.8 mph N/A Snow Light Snow
6:38 AM 13.1 °F -6.7 °F 9.3 °F 85% 29.75 in 10.0 mi NNW 25.3 mph 32.2 mph N/A   Overcast
6:58 AM 12.6 °F -6.2 °F 8.4 °F 83% 29.75 in 10.0 mi NNW 21.9 mph 32.2 mph N/A   Overcast
7:18 AM 12.2 °F -6.7 °F 8.1 °F 83% 29.75 in 10.0 mi NNW 21.9 mph 31.1 mph N/A   Overcast
7:38 AM 12.0 °F -6.5 °F 7.9 °F 83% 29.75 in 10.0 mi NNW 20.7 mph 27.6 mph N/A   Overcast
7:58 AM 11.7 °F -6.5 °F 7.7 °F 84% 29.76 in 10.0 mi NNW 19.6 mph 27.6 mph N/A   Overcast
8:18 AM 11.8 °F -8.0 °F 7.5 °F 83% 29.77 in 10.0 mi NNW 24.2 mph 27.6 mph N/A   Overcast
8:38 AM 11.8 °F -6.7 °F 7.7 °F 83% 29.77 in 5.0 mi NNW 20.7 mph 28.8 mph N/A Snow Light Snow
8:58 AM 12.2 °F -7.1 °F 7.5 °F 82% 29.77 in 5.0 mi NNW 23.0 mph 29.9 mph N/A Snow Light Snow
9:18 AM 11.3 °F -8.7 °F 6.8 °F 82% 29.77 in 5.0 mi NNW 24.2 mph 32.2 mph N/A Snow Light Snow
9:38 AM 11.3 °F -7.0 °F 6.8 °F 82% 29.78 in 4.0 mi NNW 19.6 mph 31.1 mph N/A Snow Light Snow
9:58 AM 11.3 °F -9.4 °F 6.6 °F 81% 29.78 in 5.0 mi NNW 26.5 mph 32.2 mph N/A Snow Light Snow
10:18 AM 11.8 °F -7.2 °F 7.7 °F 83% 29.78 in 4.0 mi NNW 21.9 mph 29.9 mph N/A Snow Light Snow
10:37 AM 12.0 °F -6.0 °F 7.5 °F 82% 29.79 in 10.0 mi NNW 19.6 mph 29.9 mph N/A   Overcast
10:58 AM 12.2 °F -6.7 °F 7.9 °F 83% 29.79 in 5.0 mi NNW 21.9 mph 29.9 mph N/A Snow Light Snow
11:17 AM 12.0 °F -6.9 °F 7.3 °F 81% 29.79 in 7.0 mi NNW 21.9 mph 31.1 mph N/A   Overcast
11:38 AM 11.8 °F -7.6 °F 7.0 °F 81% 29.79 in 10.0 mi NNW 23.0 mph 33.4 mph N/A   Overcast
11:58 AM 12.2 °F -5.3 °F 7.5 °F 82% 29.78 in 7.0 mi NNW 18.4 mph 31.1 mph N/A   Overcast
12:18 PM 12.7 °F -6.4 °F 8.2 °F 82% 29.78 in 7.0 mi NNW 23.0 mph 28.8 mph N/A   Overcast
12:38 PM 12.9 °F -6.1 °F 7.9 °F 80% 29.78 in 7.0 mi NW 23.0 mph 28.8 mph N/A Snow Light Snow
12:58 PM 12.9 °F -6.5 °F 7.3 °F 78% 29.78 in 10.0 mi NW 24.2 mph 32.2 mph N/A   Overcast
1:18 PM 13.6 °F -3.5 °F 8.4 °F 80% 29.77 in 7.0 mi NNW 18.4 mph 27.6 mph N/A Snow Light Snow
1:38 PM 13.3 °F -5.3 °F 7.7 °F 78% 29.77 in 7.0 mi NNW 21.9 mph 28.8 mph N/A Snow Light Snow
1:57 PM 12.9 °F -4.9 °F 7.9 °F 80% 29.76 in 5.0 mi NNW 19.6 mph - N/A Snow Light Snow
2:17 PM 12.9 °F -5.7 °F 7.9 °F 80% 29.76 in 4.0 mi NNW 21.9 mph - N/A Snow Light Snow
2:37 PM 12.7 °F -4.6 °F 7.7 °F 80% 29.76 in 7.0 mi NNW 18.4 mph 26.5 mph N/A Snow Light Snow
2:57 PM 12.7 °F -5.5 °F 7.7 °F 80% 29.76 in 5.0 mi NW 20.7 mph 25.3 mph N/A Snow Light Snow
3:18 PM 12.4 °F -6.0 °F 7.5 °F 81% 29.76 in 10.0 mi NNW 20.7 mph 27.6 mph N/A   Overcast
3:38 PM 12.0 °F -7.7 °F 6.8 °F 80% 29.77 in 7.0 mi NNW 24.2 mph 28.8 mph N/A Snow Light Snow
3:58 PM 11.3 °F -7.9 °F 5.7 °F 78% 29.79 in 10.0 mi NW 21.9 mph 28.8 mph N/A   Overcast
4:18 PM 10.8 °F -7.7 °F 5.9 °F 81% 29.79 in 4.0 mi NNW 19.6 mph 24.2 mph N/A Snow Light Snow
4:38 PM 10.4 °F -7.2 °F 5.7 °F 81% 29.78 in 3.0 mi NW 17.3 mph 23.0 mph N/A Snow Light Snow
4:58 PM 10.2 °F -8.4 °F 5.0 °F 79% 29.78 in 7.0 mi NNW 19.6 mph 24.2 mph N/A   Overcast
5:18 PM 9.9 °F -7.9 °F 4.6 °F 79% 29.79 in 7.0 mi NW 17.3 mph - N/A   Mostly Cloudy
5:38 PM 9.0 °F -8.5 °F 3.9 °F 80% 29.79 in 10.0 mi NNW 16.1 mph 21.9 mph N/A   Scattered Clouds
5:58 PM 8.4 °F -9.2 °F 3.4 °F 80% 29.79 in 10.0 mi NW 16.1 mph - N/A   Clear
6:18 PM 8.1 °F -8.4 °F 3.2 °F 81% 29.80 in 10.0 mi NW 13.8 mph - N/A   Clear
6:38 PM 7.5 °F -10.9 °F 2.1 °F 79% 29.81 in 10.0 mi NW 17.3 mph 23.0 mph N/A   Clear
6:58 PM 7.0 °F -9.1 °F 2.3 °F 81% 29.81 in 10.0 mi NW 12.7 mph - N/A   Clear
7:18 PM 6.8 °F -9.3 °F 2.3 °F 82% 29.81 in 10.0 mi NW 12.7 mph 19.6 mph N/A   Clear
7:37 PM 6.1 °F -13.3 °F 0.5 °F 78% 29.81 in 10.0 mi NW 18.4 mph 24.2 mph N/A   Clear
7:57 PM 5.7 °F -11.4 °F 0.5 °F 79% 29.81 in 10.0 mi NW 13.8 mph - N/A   Clear
8:17 PM 5.7 °F -12.6 °F 0.9 °F 80% 29.81 in 7.0 mi NW 16.1 mph 20.7 mph N/A   Mostly Cloudy
8:38 PM 4.8 °F -12.5 °F -0.8 °F 78% 29.82 in 10.0 mi NNW 13.8 mph - N/A   Mostly Cloudy
8:58 PM 3.7 °F -15.8 °F -2.2 °F 76% 29.81 in 10.0 mi NW 17.3 mph 23.0 mph N/A   Scattered Clouds
9:18 PM 2.8 °F -17.0 °F -3.1 °F 76% 29.82 in 10.0 mi NW 17.3 mph 20.7 mph N/A   Clear
9:37 PM 2.1 °F -16.6 °F -3.6 °F 77% 29.82 in 10.0 mi NW 15.0 mph - N/A   Clear
9:58 PM 1.4 °F -19.4 °F -4.2 °F 77% 29.83 in 10.0 mi NW 18.4 mph 21.9 mph N/A   Scattered Clouds
10:18 PM 0.7 °F -19.8 °F -5.3 °F 76% 29.84 in 10.0 mi NW 17.3 mph 23.0 mph N/A   Overcast
10:38 PM 0.5 °F -20.6 °F -5.1 °F 77% 29.84 in 10.0 mi NW 18.4 mph 23.0 mph N/A   Overcast
10:57 PM -0.6 °F -19.4 °F -6.7 °F 75% 29.84 in 10.0 mi NW 13.8 mph 21.9 mph N/A   Overcast
11:18 PM -1.3 °F -22.9 °F -7.2 °F 76% 29.85 in 10.0 mi NW 18.4 mph 21.9 mph N/A   Mostly Cloudy
11:37 PM -1.7 °F -22.8 °F -8.0 °F 75% 29.85 in 10.0 mi NW 17.3 mph - N/A   Overcast
11:58 PM -2.2 °F -24.1 °F -8.5 °F 75% 29.86 in 10.0 mi NW 18.4 mph - N/A   Overcast